Temp
13 12 12 12 12 12 12 12 12 12 12 12 13 13 14 15 16 15 16 16 16 16 17 16 16 15 15 15 15 15 15 15
13 12 12 11 11 12 11 11 11 12 12 12 13 14 15 15 16 16 16 16 15 16 16 16 16 15 15 15 15 15 14 14
13 12 11 12 11 11 11 11 11 12 12 13 12 13 14 14 16 17 17 17 16 16 16 16 16 15 15 15 15 14 14 14
14 13 12 11 11 11 11 11 11 12 12 13 12 13 13 14 14 16 15 15 16 17 17 16 16 15 15 15 15 15 14 13
13 14 12 11 11 11 11 12 11 12 12 13 13 13 13 15 15 15 15 15 15 16 16 16 15 15 15 15 15 15 15 14
12 14 13 12 11 11 11 11 11 12 12 13 13 13 13 14 15 15 15 15 15 15 15 15 15 15 15 15 15 14 14 14
12 13 12 12 12 11 11 11 11 11 12 12 13 13 13 13 14 14 14 15 15 15 15 15 16 15 15 15 14 14 14 14
12 11 11 11 11 11 10 10 10 10 11 12 12 13 13 13 14 14 14 14 15 16 16 16 16 15 15 15 15 14 14 13
12 12 11 11 10 10 10 10 10 10 10 11 11 12 12 13 13 13 14 14 15 16 16 16 16 15 15 15 14 13 13 13
13 12 12 12 11 10 10 10 10 11 11 11 11 11 12 12 12 13 13 14 14 15 15 15 15 15 15 14 14 14 13 13
14 13 13 13 12 11 10 11 11 11 12 12 12 12 12 12 12 12 13 13 14 14 15 15 14 14 14 13 13 13 11 11
15 15 15 14 13 12 11 11 11 12 12 12 12 12 12 13 13 13 13 13 14 15 15 15 14 14 14 12 12 12 11 10
15 14 15 14 13 13 12 12 12 12 13 13 12 12 12 12 13 13 13 13 14 14 13 13 12 12 12 12 12 11 13 9
15 14 15 15 15 14 13 13 12 13 13 13 13 13 12 13 13 13 13 13 13 13 12 12 12 12 12 13 12 11 11 9
15 14 15 15 15 15 14 14 14 13 13 14 13 13 13 13 13 13 13 13 13 13 12 14 12 11 12 12 11 10 9 8
16 15 15 15 15 15 15 15 14 14 13 13 14 13 13 13 13 13 13 13 12 12 12 12 11 11 10 10 10 9 9 8
18 17 15 15 16 16 15 15 14 14 13 13 13 13 14 13 13 13 13 12 12 12 12 12 11 10 9 10 10 9 8 7
17 17 16 15 15 16 15 15 15 15 13 13 13 13 14 13 13 12 12 12 12 12 12 11 11 10 10 9 8 7 6 5
17 15 11 10 10 12 12 12 13 13 12 11 11 11 11 12 12 12 12 12 11 10 10 9 8 8 8 7 6 6 5 4
Height
745 746 747 747 749 751 753 755 758 760 765 770 778 784 789 792 797 802 806 810 816 822 826 830 830 837 841 842 843 847 850 853
745 746 747 748 750 752 756 757 759 763 767 772 778 782 789 794 798 802 804 813 818 821 827 829 831 835 838 840 841 845 848 851
743 745 745 747 750 754 757 758 760 764 768 775 779 785 791 795 795 802 807 811 818 823 824 828 830 834 836 837 839 842 846 847
740 744 744 746 749 752 756 759 762 765 770 775 783 788 793 796 798 802 809 814 817 817 824 825 828 830 832 834 836 838 840 844
737 741 745 745 748 752 755 758 761 765 769 774 779 783 787 793 798 804 809 811 815 814 819 821 823 826 827 830 833 834 836 837
730 734 739 743 747 750 754 757 761 765 769 773 777 782 785 790 795 800 805 809 810 813 816 818 819 822 823 826 828 830 830 831
726 731 736 742 747 749 753 755 759 762 766 770 773 776 782 788 792 794 798 802 805 808 812 813 813 816 817 819 823 825 825 827
723 728 733 737 740 746 750 754 757 761 765 767 770 774 779 782 787 791 794 797 799 801 804 806 808 811 813 814 816 817 819 821
713 719 724 730 734 738 741 745 751 754 761 763 767 770 774 778 782 787 788 791 794 796 798 800 803 805 808 809 810 811 812 813
703 711 716 720 724 728 733 739 744 748 756 759 762 766 769 771 776 781 785 788 789 791 792 795 796 797 800 801 802 802 803 805
697 703 707 712 718 724 730 733 734 739 747 751 757 762 767 770 773 776 778 782 782 783 786 788 790 792 793 793 794 795 796 797
690 692 698 707 713 717 721 728 733 737 740 744 750 753 757 761 765 768 771 773 774 776 779 780 782 783 782 783 785 786 787 790
686 692 697 702 706 711 714 721 724 727 732 737 738 745 750 754 757 759 764 765 768 771 773 774 774 772 773 775 778 771 779 780
682 687 689 694 698 702 706 710 712 719 727 730 735 738 742 744 747 751 756 758 760 763 764 766 765 765 764 764 766 767 769 771
677 682 683 687 691 694 697 700 704 711 716 720 724 726 728 734 740 744 747 749 753 754 755 754 757 757 758 758 760 762 763 765
674 675 676 680 685 688 691 693 696 702 708 713 711 719 726 731 734 738 740 742 745 747 749 749 748 750 752 752 752 754 756 759
663 666 670 673 675 678 681 686 691 697 703 705 712 718 722 725 728 731 734 736 738 741 740 741 742 744 745 745 746 747 748 750
657 657 660 665 670 673 678 683 689 694 698 703 708 713 717 720 723 727 730 731 732 733 734 735 736 737 738 739 742 743 746 748
653 654 660 667 671 674 678 683 688 692 697 702 706 711 715 719 721 723 724 726 728 729 730 732 734 735 737 740 743 745 745 748
Wind_Speed
6 6 8 10 11 13 16 22 29 30 30 31 24 26 31 32 34 35 34 32 35 34 31 32 31 28 25 24 21 20 20 18
9 9 11 15 14 15 17 21 30 33 32 31 28 28 33 33 33 30 27 25 26 26 28 27 27 28 27 24 23 23 21 19
9 10 11 14 16 19 22 22 25 33 29 25 22 21 26 28 30 32 29 25 28 30 26 27 28 29 26 26 26 23 19 23
10 10 12 14 16 20 23 26 29 29 31 30 21 24 22 22 23 26 28 33 30 27 27 29 30 29 30 29 29 27 25 25
9 12 14 16 16 18 21 26 26 27 32 31 29 26 24 26 30 29 27 26 27 24 26 27 28 29 30 31 32 32 30 25
12 12 17 18 20 21 22 25 29 31 35 35 31 26 25 28 32 29 29 24 21 22 24 23 24 27 30 31 35 37 35 30
12 17 16 19 21 23 26 26 29 31 35 37 35 33 30 29 31 31 34 31 28 27 28 28 26 29 30 33 37 37 40 36
13 14 16 20 21 23 27 28 29 34 36 36 38 37 37 35 35 35 33 33 33 33 30 30 31 32 33 33 36 39 41 39
15 16 19 24 26 25 24 26 27 31 33 34 34 37 35 35 35 33 34 36 37 37 36 35 37 37 36 36 37 41 39 39
16 15 22 25 26 29 29 30 30 31 34 34 34 34 35 32 34 35 36 38 38 37 37 39 39 38 39 38 38 39 37 39
11 13 22 27 27 29 32 34 35 35 36 35 36 36 37 38 35 35 37 39 39 39 39 39 38 38 37 37 36 35 34 37
13 14 19 21 24 27 30 31 30 30 33 35 37 38 39 38 39 42 40 39 41 42 42 42 43 42 38 35 33 31 29 36
9 6 11 18 23 26 29 30 33 33 35 35 34 34 36 39 42 41 38 41 43 45 42 43 37 38 37 32 32 28 31 38
8 9 11 14 20 23 27 31 36 35 33 33 30 35 33 38 38 37 40 42 44 42 40 35 38 37 39 34 33 37 47 42
6 7 11 15 21 24 25 28 32 32 36 37 33 35 38 36 36 36 38 40 38 38 38 35 39 37 36 36 36 35 34 33
8 9 10 10 18 22 26 29 31 31 32 32 42 34 31 31 34 36 38 37 36 37 36 38 37 33 35 33 34 35 35 32
10 10 9 11 20 25 26 27 28 29 30 33 30 30 31 33 34 36 37 34 33 33 35 36 33 30 34 35 36 34 34 32
10 12 10 7 13 17 19 19 21 26 27 26 26 27 30 32 31 29 30 33 34 34 34 29 28 29 30 31 29 27 24 22
8 6 6 9 7 9 11 10 12 17 18 17 19 20 19 19 20 23 26 26 25 21 19 18 17 15 15 19 20 16 17 17
Wind_Direction
188 182 156 175 167 175 165 161 160 155 150 156 163 176 190 190 187 181 176 186 187 191 186 182 178 183 183 180 176 177 182 178
175 174 165 150 165 176 172 152 161 156 155 157 167 170 178 176 173 169 161 183 190 191 191 189 184 193 194 188 181 185 184 183
177 173 166 171 165 167 170 156 154 158 155 155 162 173 168 167 163 174 184 192 197 194 191 197 198 204 204 199 196 190 194 191
182 178 176 174 174 173 171 166 165 160 159 159 166 167 168 156 159 168 185 200 203 197 210 207 208 215 212 210 209 209 196 199
178 187 179 180 186 184 181 182 177 168 168 167 177 177 173 182 188 193 201 205 209 202 210 213 219 219 219 222 221 217 215 201
179 192 191 178 186 191 190 190 187 189 187 183 188 182 187 191 200 208 220 216 216 217 219 219 225 231 233 234 231 222 222 218
177 183 195 196 189 190 200 197 198 198 197 198 200 196 197 203 209 217 228 229 228 222 223 228 233 238 241 240 234 232 229 228
175 178 183 192 196 196 195 196 202 205 207 206 206 209 211 210 215 222 229 233 235 234 234 237 243 245 244 243 243 236 233 233
178 183 188 190 193 198 196 199 204 205 211 209 210 212 214 213 218 223 231 235 239 241 243 247 250 248 246 245 244 244 241 236
185 179 188 192 198 198 197 198 202 206 212 214 217 221 221 222 226 233 239 241 242 245 249 250 252 253 250 247 243 246 244 238
193 186 191 195 196 198 201 205 204 204 211 217 222 225 227 229 231 238 242 247 249 250 253 255 258 260 259 255 247 246 243 242
201 206 200 189 191 194 200 202 206 207 210 215 222 227 231 235 237 239 243 248 250 255 260 262 262 260 258 253 250 244 254 248
197 189 181 189 191 194 197 197 204 207 211 215 219 222 226 228 233 238 242 248 252 257 258 260 257 263 259 254 252 234 237 236
174 180 194 197 200 200 201 203 208 208 209 214 215 221 220 230 235 239 244 247 250 252 253 248 254 251 244 248 249 255 236 231
189 182 199 201 204 208 210 215 217 212 213 218 221 222 224 229 233 235 238 240 242 246 252 263 260 247 255 248 248 235 230 225
201 197 203 197 202 210 212 217 215 213 214 218 226 228 229 232 234 238 244 246 244 245 245 248 240 247 247 245 241 231 231 227
211 207 194 196 202 208 210 213 211 207 210 220 228 231 233 235 237 238 239 239 240 239 235 242 241 246 251 253 247 232 224 215
212 212 206 190 208 214 207 209 209 206 207 214 219 224 229 232 234 233 233 237 239 236 239 244 252 257 255 246 225 212 198 187
218 143 110 108 107 132 155 149 170 186 189 192 205 211 219 221 221 223 227 229 232 237 244 244 239 239 238 214 199 188 165 155